Weather History for Saranac Lake, NY

Change the Weather History Date:

Wednesday, September 18, 2013

  Actual Average Record
Temperature  
Mean Temperature 50 °F 53 °F  
Max Temperature 69 °F 65 °F 82 °F (1955)
Min Temperature 31 °F 41 °F 29 °F (1959)
Degree Days  
Heating Degree Days 15 12  
Month to date heating degree days 211 167  
Since 1 July heating degree days 424 407  
Cooling Degree Days 0 0  
Month to date cooling degree days 16 7  
Year to date cooling degree days 187 114  
Moisture  
Dew Point 36 °F    
Average Humidity 67    
Maximum Humidity 100    
Minimum Humidity 33    
Precipitation  
Precipitation 0.00 in 0.11 in 0.65 in (2012)
Month to date precipitation 3.22 2.04  
Year to date precipitation 32.10 26.58  
Sea Level Pressure  
Sea Level Pressure 30.27 in    
Wind  
Wind Speed 3 mph (SW)    
Max Wind Speed 12 mph    
Max Gust Speed 18 mph    
Visibility 5 miles    
Events Fog    
T = Trace of Precipitation, MM = Missing Value Source: NWS Daily Summary

Daily Weather History Graph

Daily Weather History Graph

Search for Another Location

Airport:

Trip Planner

Search our weather history database for the weather conditions in past years. The results will help you decide how hot, cold, wet, or windy it might be!

Date:

Astronomy

Sep. 18, 2013 Rise Set
Actual Time 6:39 AM EDT 7:01 PM EDT
Civil Twilight 6:10 AM EDT 7:30 PM EDT
Nautical Twilight 5:36 AM EDT 8:04 PM EDT
Astronomical Twilight 5:00 AM EDT 8:39 PM EDT
Moon 6:22 PM EDT (9/18) 5:38 AM EDT (9/18)
Length of Visible Light 13h 19m
Length of Day
12h 21m
Waxing Gibbous, 99% of the Moon is Illuminated
Sep 18
Waxing Gibbous
Sep 19
Full
Sep 26
Last Quarter
Oct 4
New
Oct 11
First Quarter

Hourly Weather History & Observations

Time (EDT) Temp. Windchill Dew Point Humidity Pressure Visibility Wind Dir Wind Speed Gust Speed Precip Events Conditions
12:01 AM 33.8 °F - 33.8 °F 100% 30.31 in 10.0 mi Calm Calm - N/A   Partly Cloudy
12:51 AM 34.0 °F - 33.1 °F 96% 30.34 in 10.0 mi Calm Calm - N/A   Scattered Clouds
1:00 AM 33.8 °F - 33.8 °F 100% 30.31 in 10.0 mi Calm Calm - N/A   Mostly Cloudy
1:11 AM 35.6 °F - 33.8 °F 93% 30.31 in 1.0 mi Calm Calm - N/A   Mist
1:15 AM 35.6 °F - 33.8 °F 93% 30.31 in 0.2 mi Calm Calm - N/A Fog Fog
1:51 AM 36.0 °F - 35.1 °F 97% 30.33 in 0.2 mi Calm Calm - N/A Fog Fog
2:18 AM 33.8 °F - 33.8 °F 100% 30.30 in 1.0 mi Calm Calm - N/A   Mist
2:23 AM 33.8 °F - 33.8 °F 100% 30.30 in 3.0 mi Calm Calm - N/A   Mostly Cloudy
2:31 AM 33.8 °F - 33.8 °F 100% 30.30 in 6.0 mi Calm Calm - N/A   Scattered Clouds
2:51 AM 33.1 °F - 33.1 °F 100% 30.32 in 10.0 mi Calm Calm - N/A   Scattered Clouds
3:01 AM 33.8 °F - 32.0 °F 93% 30.30 in 10.0 mi Calm Calm - N/A   Mostly Cloudy
3:11 AM 33.8 °F 30.8 °F 33.8 °F 100% 30.29 in 1.8 mi SSW 3.5 mph - N/A   Overcast
3:40 AM 32.0 °F 28.7 °F 32.0 °F 100% 30.29 in 2.0 mi SSW 3.5 mph - N/A   Overcast
3:51 AM 33.1 °F - 33.1 °F 100% 30.32 in 2.5 mi Calm Calm - N/A   Overcast
4:01 AM 32.0 °F - 32.0 °F 100% 30.29 in 4.0 mi Calm Calm - N/A   Overcast
4:49 AM 33.8 °F - 32.0 °F 93% 30.29 in 1.5 mi Calm Calm - N/A   Overcast
4:51 AM 33.1 °F - 33.1 °F 100% 30.31 in 0.8 mi Calm Calm - N/A   Mist
5:01 AM 33.8 °F - 32.0 °F 93% 30.28 in 0.2 mi Calm Calm - N/A Fog Fog
5:24 AM 32.0 °F - 32.0 °F 100% 30.28 in 0.8 mi Calm Calm - N/A   Mist
5:33 AM 32.0 °F - 32.0 °F 100% 30.28 in 2.0 mi Calm Calm - N/A   Overcast
5:41 AM 32.0 °F - 32.0 °F 100% 30.29 in 3.0 mi Calm Calm - N/A   Overcast
5:47 AM 32.0 °F - 32.0 °F 100% 30.29 in 1.8 mi Calm Calm - N/A   Overcast
5:51 AM 32.0 °F - 32.0 °F 100% 30.32 in 1.5 mi Calm Calm - N/A   Overcast
5:59 AM 30.2 °F - 30.2 °F 100% 30.29 in 3.0 mi Calm Calm - N/A   Overcast
6:05 AM 30.2 °F - 30.2 °F 100% 30.29 in 1.8 mi Calm Calm - N/A   Overcast
6:39 AM 30.2 °F - 30.2 °F 100% 30.29 in 0.5 mi Calm Calm - N/A Fog Light Freezing Fog
6:48 AM 30.2 °F - 30.2 °F 100% 30.29 in 2.0 mi Calm Calm - N/A   Overcast
6:51 AM 30.9 °F - 30.9 °F 100% 30.33 in 5.0 mi Calm Calm - N/A   Overcast
7:17 AM 32.0 °F - 32.0 °F 100% 30.29 in 1.5 mi Calm Calm - N/A   Overcast
7:23 AM 32.0 °F - 32.0 °F 100% 30.29 in 0.2 mi Calm Calm - N/A Fog Fog
7:51 AM 34.0 °F - 34.0 °F 100% 30.33 in 1.0 mi Calm Calm - N/A   Mist
8:02 AM 37.4 °F - 37.4 °F 100% 30.28 in 2.0 mi Calm Calm - N/A   Partly Cloudy
8:09 AM 37.4 °F - 37.4 °F 100% 30.28 in 5.0 mi Calm Calm - N/A   Partly Cloudy
8:51 AM 46.0 °F 44.8 °F 44.1 °F 93% 30.32 in 10.0 mi SSW 3.5 mph - N/A   Clear
9:51 AM 54.0 °F - 42.1 °F 64% 30.30 in 10.0 mi WSW 6.9 mph - N/A   Clear
10:51 AM 57.0 °F - 41.0 °F 55% 30.30 in 10.0 mi Variable 5.8 mph - N/A   Clear
11:51 AM 61.0 °F - 39.9 °F 46% 30.27 in 10.0 mi Variable 6.9 mph - N/A   Clear
12:51 PM 64.0 °F - 39.0 °F 40% 30.24 in 10.0 mi West 6.9 mph - N/A   Clear
1:51 PM 64.9 °F - 39.9 °F 40% 30.22 in 10.0 mi WSW 6.9 mph - N/A   Clear
2:51 PM 66.9 °F - 39.0 °F 36% 30.20 in 10.0 mi WSW 6.9 mph - N/A   Clear
3:51 PM 68.0 °F - 39.9 °F 36% 30.17 in 10.0 mi Variable 4.6 mph - N/A   Clear
4:51 PM 69.1 °F - 39.9 °F 35% 30.16 in 10.0 mi SW 10.4 mph - N/A   Clear
5:51 PM 66.9 °F - 39.9 °F 37% 30.16 in 10.0 mi West 4.6 mph - N/A   Clear
6:51 PM 57.9 °F - 46.0 °F 65% 30.17 in 10.0 mi Calm Calm - N/A   Clear
7:51 PM 48.9 °F - 46.0 °F 90% 30.18 in 10.0 mi Calm Calm - N/A   Clear
8:51 PM 46.0 °F - 44.1 °F 93% 30.18 in 10.0 mi Calm Calm - N/A   Clear
9:51 PM 44.1 °F - 42.1 °F 93% 30.17 in 10.0 mi Calm Calm - N/A   Clear
10:51 PM 39.9 °F - 39.0 °F 97% 30.17 in 10.0 mi Calm Calm - N/A   Clear
11:51 PM 39.0 °F - 37.9 °F 96% 30.17 in 10.0 mi Calm Calm - N/A   Clear